Bradford, PA

12:26 AM EST on December 14, 2019 (GMT -0500)
Bradford Regional

Weather History for KBFD - November, 2019

Change the Weather History Date:

Tuesday, November 19, 2019

  Actual Average Record
Temperature  
Mean Temperature 32 °F 36 °F  
Max Temperature 35 °F 44 °F 69 °F (1985)
Min Temperature 29 °F 28 °F 6 °F (2008)
Degree Days  
Heating Degree Days 33 25  
Month to date heating degree days 644 406  
Since 1 July heating degree days 1303 1399  
Cooling Degree Days 0 0  
Month to date cooling degree days 0 0  
Year to date cooling degree days 283 193  
Moisture  
Dew Point 29 °F    
Average Humidity 89    
Maximum Humidity 96    
Minimum Humidity 82    
Precipitation  
Precipitation 0.00 in 0.13 in 1.91 in (2003)
Month to date precipitation 0.69 2.30  
Year to date precipitation 41.59 39.60  
Sea Level Pressure  
Sea Level Pressure 29.81 in    
Wind  
Wind Speed 1 mph ()    
Max Wind Speed 7 mph    
Max Gust Speed 9 mph    
Visibility 5.1 miles    
Events Fog    
T = Trace of Precipitation, MM = Missing Value Source: Averaged Metar Reports

Daily Weather History Graph

Daily Weather History Graph

Search for Another Location

Airport or City:

Astronomy

Nov. 19, 2019 Rise Set
Actual Time 7:08 AM EST 4:50 PM EST
Civil Twilight 6:38 AM EST 5:21 PM EST
Nautical Twilight 6:04 AM EST 5:55 PM EST
Astronomical Twilight 5:31 AM EST 6:28 PM EST
Moon 11:45 PM EST (11/19) 1:17 PM EST (11/19)
Length of Visible Light 10h 42m
Length of Day
9h 42m
Waning Gibbous, 52% of the Moon is Illuminated
Nov 19
Waning Gibbous
Nov 19
Last Quarter
Nov 26
New
Dec 4
First Quarter
Dec 12
Full

Hourly Weather History & Observations

Time (EST) Temp. Windchill Dew Point Humidity Pressure Visibility Wind Dir Wind Speed Gust Speed Precip Events Conditions
12:53 AM 30.9 °F - 30.0 °F 96% 29.73 in 0.2 mi Calm Calm - N/A Fog Light Freezing Fog
1:53 AM 30.9 °F - 28.9 °F 92% 29.73 in 0.2 mi Calm Calm - N/A Fog Light Freezing Fog
2:24 AM 30.9 °F - 28.9 °F 92% 29.68 in 0.5 mi Calm Calm - N/A Fog Light Freezing Fog
2:53 AM 30.0 °F - 28.0 °F 92% 29.73 in 0.8 mi Calm Calm - N/A   Mist
3:53 AM 30.0 °F - 28.9 °F 96% 29.73 in 0.8 mi Calm Calm - N/A   Mist
4:06 AM 30.0 °F - 28.0 °F 92% 29.68 in 0.5 mi Calm Calm - N/A Fog Light Freezing Fog
4:14 AM 30.0 °F - 27.0 °F 88% 29.68 in 0.8 mi Calm Calm - N/A   Overcast
4:45 AM 30.0 °F - 28.0 °F 92% 29.68 in 0.2 mi Calm Calm - N/A Fog Light Freezing Fog
4:53 AM 30.0 °F - 28.0 °F 92% 29.74 in 0.2 mi Calm Calm - N/A Fog Light Freezing Fog
5:53 AM 30.0 °F - 28.0 °F 92% 29.75 in 0.2 mi Calm Calm - N/A Fog Light Freezing Fog
7:53 AM 30.0 °F - 28.0 °F 92% 29.80 in 0.2 mi Calm Calm - N/A Fog Light Freezing Fog
8:53 AM 30.0 °F - 28.9 °F 96% 29.81 in 0.2 mi Calm Calm - N/A Fog Light Freezing Fog
9:53 AM 32.0 °F 28.7 °F 30.0 °F 92% 29.82 in 0.2 mi West 3.5 mph - N/A Fog Fog
10:22 AM 32.0 °F 28.7 °F 30.0 °F 92% 29.77 in 0.5 mi WNW 3.5 mph - N/A Fog Fog
10:53 AM 32.0 °F 28.7 °F 30.0 °F 92% 29.82 in 3.0 mi SW 3.5 mph - N/A   Overcast
11:53 AM 32.0 °F 27.5 °F 30.0 °F 92% 29.82 in 7.0 mi WSW 4.6 mph - N/A   Overcast
12:53 PM 32.0 °F 27.5 °F 28.9 °F 88% 29.82 in 9.0 mi WNW 4.6 mph - N/A   Overcast
1:53 PM 32.0 °F 26.4 °F 28.9 °F 88% 29.83 in 10.0 mi West 5.8 mph - N/A   Overcast
2:53 PM 33.1 °F 28.7 °F 28.9 °F 85% 29.84 in 10.0 mi West 4.6 mph - N/A   Overcast
3:53 PM 35.1 °F 32.2 °F 30.0 °F 82% 29.86 in 10.0 mi Variable 3.5 mph - N/A   Overcast
4:29 PM 35.1 °F - 30.0 °F 82% 29.81 in 10.0 mi Calm Calm - N/A   Overcast
4:53 PM 35.1 °F - 30.0 °F 82% 29.87 in 10.0 mi Calm Calm - N/A   Overcast
5:53 PM 34.0 °F - 28.9 °F 82% 29.89 in 10.0 mi Calm Calm - N/A   Overcast
7:53 PM 34.0 °F - 30.0 °F 85% 29.91 in 10.0 mi Calm Calm - N/A   Overcast
8:53 PM 34.0 °F - 30.0 °F 85% 29.91 in 10.0 mi Calm Calm - N/A   Overcast
9:19 PM 34.0 °F - 30.0 °F 85% 29.87 in 10.0 mi Calm Calm - N/A   Overcast
9:53 PM 34.0 °F - 30.0 °F 85% 29.92 in 10.0 mi Calm Calm - N/A   Overcast
10:43 PM 34.0 °F - 30.0 °F 85% 29.87 in 10.0 mi Calm Calm - N/A   Overcast
10:53 PM 34.0 °F - 30.0 °F 85% 29.92 in 10.0 mi Calm Calm - N/A   Overcast
11:53 PM 34.0 °F - 30.0 °F 85% 29.93 in 10.0 mi Calm Calm - N/A   Overcast